Regional Weather Roundup
Issued by NWS

Home | Current Version | Previous Version | Graphics & Text | Print | Product List | Glossary On
Versions: 1 2 3 4 5 6 7 8 9 10 11 12 13 14 15 16 17 18 19 20 21 22 23 24 25 26 27 28 29 30 31 32 33 34 35 36 37 38 39 40 41 42 43 44 45 46 47 48 49 50
000
ASUS43 KOAX 211502
RWRNE

WEATHER ROUNDUP FOR NEBRASKA
NATIONAL WEATHER SERVICE OMAHA NE
1000 AM CDT SUN MAY 21 2017

NOTES: SATELLITE DATA IS BEING USED TO AUGMENT CLOUD COVER ABOVE
       12000 FEET.
       "FAIR" INDICATES FEW OR NO CLOUDS BELOW 12,000 FEET WITH NO
       SIGNIFICANT WEATHER AND/OR OBSTRUCTIONS TO VISIBILITY.

  * THESE STATIONS DO NOT REPORT WEATHER SUCH AS RAIN...SNOW OR FOG.

NEZ001>004-019>022-054>056-211600-
NEBRASKA PANHANDLE

CITY           SKY/WX    TMP DP  RH WIND       PRES   REMARKS
SCOTTSBLUFF    PTSUNNY   53  41  63 W7        30.17S
ALLIANCE       SUNNY     53  41  63 NW10      30.14S
CHADRON        SUNNY     56  41  57 NW10      30.13S
GORDON         FAIR      55  38  54 NW10      30.11S
KIMBALL        SUNNY     54  40  59 NW9       30.20R
SIDNEY         MOSUNNY   54  41  61 NW7       30.18S
$$

NEZ057>060-069>072-079>082-211600-
SOUTHWEST NEBRASKA

CITY           SKY/WX    TMP DP  RH WIND       PRES   REMARKS
NORTH PLATTE   SUNNY     55  46  71 SW8       30.14R
IMPERIAL       SUNNY     59  41  51 W13       30.16R
LEXINGTON      SUNNY     54  42  66 W12       30.14R
MCCOOK         SUNNY     55  47  74 W6        30.16R
OGALLALA       SUNNY     55  47  75 W10       30.16R
$$

NEZ005>010-023>029-035>040-094-211600-
NORTH CENTRAL NEBRASKA

CITY           SKY/WX    TMP DP  RH WIND       PRES   REMARKS
VALENTINE      SUNNY     56  37  49 W10       30.08R
AINSWORTH      SUNNY     51  44  76 NW3       30.09R
BROKEN BOW     SUNNY     54  44  69 NW15      30.09S
O`NEILL        SUNNY     50  38  62 NW16G23   30.08R
ORD            SUNNY     51  41  68 N10       30.09R
$$

NEZ041-046>049-061>064-073>077-083>087-211600-
SOUTH CENTRAL NEBRASKA

CITY           SKY/WX    TMP DP  RH WIND       PRES   REMARKS
GRAND ISLAND   SUNNY     54  40  59 W13       30.12R
AURORA         SUNNY     52  42  67 W9        30.11S
HASTINGS       SUNNY     53  42  66 W8        30.13R
HEBRON         SUNNY     53  42  67 W3        30.15R
HOLDREGE       SUNNY     55  42  60 W9        30.14R
KEARNEY *      SUNNY     54  37  54 W10       30.13R
$$

NEZ011>018-030>034-042>045-211600-
NORTHEAST NEBRASKA

CITY           SKY/WX    TMP DP  RH WIND       PRES   REMARKS
NORFOLK        MOSUNNY   49  39  68 NW15      30.04S
ALBION         SUNNY     51  39  63 NW15G22   30.08S
BLAIR          CLOUDY    48  40  74 W16G22    30.06R
FREMONT        PTSUNNY   50  41  70 NW15G21   30.07S
TEKAMAH        PTSUNNY   49  40  71 NW17      30.05R
$$

NEZ050>053-065>068-078-088>093-211600-
SOUTHEAST NEBRASKA

CITY           SKY/WX    TMP DP  RH WIND       PRES   REMARKS
LINCOLN        SUNNY     54  39  57 W12       30.11S
OMAHA EPPLEY   PTSUNNY   50  40  68 NW14      30.06R
BEATRICE       SUNNY     53  42  67 W10G18    30.12S
FALLS CITY     SUNNY     53  42  66 W18       30.11R
NEBRASKA CITY  SUNNY     51  38  60 NW18      30.09R
$$

NEZ044-045-051>053-067-211600-
OMAHA AREA

CITY           SKY/WX    TMP DP  RH WIND       PRES   REMARKS
OMAHA EPPLEY   PTSUNNY   50  40  68 NW14      30.06R
BLAIR          CLOUDY    48  40  74 W16G22    30.06R
FREMONT        PTSUNNY   50  41  70 NW15G21   30.07S
OFFUTT AFB     MOSUNNY   51  38  61 W18G26    30.06R
WAHOO          FAIR      51  40  66 W16       30.08R
$$




USA.gov is the U.S. government's official web portal to all federal, state and local government web resources and services.